Meadow Lake, CO

11:02 PM MDT on June 24, 2018 (GMT -0600)
Meadow Lake

Weather History for KFLY - December, 2012

Change the Weather History Date:

Monday, December 10, 2012

  Actual Average (KCOS) Record (KCOS)
Temperature  
Mean Temperature 18 °F -  
Max Temperature 36 °F 44 °F 66 °F (1975)
Min Temperature 0 °F 17 °F -13 °F (1898)
Degree Days  
Heating Degree Days 47    
Moisture  
Dew Point 5 °F    
Average Humidity 56    
Maximum Humidity 89    
Minimum Humidity 32    
Precipitation  
Precipitation 0.00 in - - ()
Sea Level Pressure  
Sea Level Pressure 29.86 in    
Wind  
Wind Speed 7 mph (NW)    
Max Wind Speed 16 mph    
Max Gust Speed 21 mph    
Visibility 10 miles    
Events Snow    
Averages and records for this station are not official NWS values.
T = Trace of Precipitation, MM = Missing Value Source: NWS Daily Summary

Daily Weather History Graph

Daily Weather History Graph

Search for Another Location

Airport or City:

Astronomy

Dec. 10, 2012 Rise Set
Actual Time 7:06 AM MST 4:36 PM MST
Civil Twilight 6:36 AM MST 5:06 PM MST
Nautical Twilight 6:03 AM MST 5:39 PM MST
Astronomical Twilight 5:30 AM MST 6:11 PM MST
Moon 3:53 AM MST (12/10) 2:26 PM MST (12/10)
Length of Visible Light 10h 29m
Length of Day
9h 29m
Waning Crescent, 10% of the Moon is Illuminated
Dec 10
Waning Crescent
Dec 13
New
Dec 19
First Quarter
Dec 28
Full
Jan 4
Last Quarter

Hourly Weather History & Observations

Time (MST) Temp. Windchill Dew Point Humidity Pressure Visibility Wind Dir Wind Speed Gust Speed Precip Events Conditions
12:15 AM 5.4 °F -6.5 °F 2.7 °F 89% 29.97 in 0.8 mi West 6.9 mph - N/A Snow Light Snow
12:35 AM 2.8 °F -6.6 °F -0.2 °F 87% 29.94 in 1.2 mi West 4.6 mph - N/A   Mostly Cloudy
12:55 AM -0.2 °F -10.1 °F -3.8 °F 85% 29.94 in 7.0 mi WNW 4.6 mph - N/A Snow Light Snow
1:15 AM 1.9 °F -7.6 °F -1.1 °F 87% 29.92 in 10.0 mi West 4.6 mph - N/A   Clear
1:55 AM 2.5 °F - -0.8 °F 86% 29.91 in 10.0 mi Calm Calm - N/A   Clear
2:15 AM 2.8 °F -4.6 °F -0.2 °F 87% 29.91 in 10.0 mi SW 3.5 mph - N/A   Clear
2:35 AM 1.2 °F -11.5 °F -2.2 °F 86% 29.91 in 10.0 mi SW 6.9 mph - N/A   Clear
2:55 AM 1.8 °F -10.8 °F -2.9 °F 81% 29.89 in 10.0 mi WSW 6.9 mph - N/A   Clear
3:15 AM 1.0 °F -14.0 °F -4.2 °F 79% 29.89 in 10.0 mi West 9.2 mph - N/A   Clear
3:35 AM -0.4 °F -12.0 °F -6.5 °F 75% 29.88 in 10.0 mi WNW 5.8 mph - N/A   Clear
3:55 AM 0.5 °F -7.3 °F -6.0 °F 74% 29.87 in 10.0 mi West 3.5 mph - N/A   Clear
4:15 AM 3.0 °F -6.4 °F -5.6 °F 67% 29.86 in 10.0 mi WNW 4.6 mph - N/A   Clear
4:55 AM 4.6 °F -6.0 °F -4.2 °F 67% 29.85 in 10.0 mi WNW 5.8 mph - N/A   Clear
5:15 AM 5.7 °F -4.8 °F -3.8 °F 65% 29.86 in 10.0 mi West 5.8 mph - N/A   Clear
5:35 AM 6.4 °F -6.3 °F -4.9 °F 60% 29.86 in 10.0 mi West 8.1 mph - N/A   Clear
6:15 AM 9.9 °F -4.7 °F -1.1 °F 61% 29.86 in 10.0 mi NW 11.5 mph - N/A   Clear
6:35 AM 11.3 °F -1.3 °F -0.6 °F 59% 29.87 in 10.0 mi NW 9.2 mph - N/A   Clear
6:55 AM 11.7 °F 1.1 °F -0.8 °F 58% 29.87 in 10.0 mi West 6.9 mph - N/A   Clear
7:15 AM 14.9 °F 1.6 °F 1.4 °F 55% 29.87 in 10.0 mi West 11.5 mph - N/A   Clear
7:35 AM 17.6 °F 4.3 °F 2.1 °F 51% 29.86 in 10.0 mi WNW 12.7 mph - N/A   Clear
7:55 AM 18.3 °F 5.9 °F 2.3 °F 50% 29.84 in 10.0 mi West 11.5 mph - N/A   Clear
8:15 AM 20.3 °F 12.5 °F 3.0 °F 47% 29.86 in 10.0 mi WNW 5.8 mph - N/A   Clear
8:35 AM 22.3 °F 10.2 °F 4.3 °F 46% 29.85 in 10.0 mi WNW 12.7 mph - N/A   Clear
8:55 AM 24.3 °F 14.6 °F 4.5 °F 43% 29.85 in 10.0 mi West 9.2 mph - N/A   Clear
9:15 AM 27.3 °F 16.6 °F 5.9 °F 40% 29.85 in 10.0 mi WNW 12.7 mph - N/A   Clear
9:35 AM 28.9 °F 19.8 °F 6.4 °F 39% 29.84 in 10.0 mi WNW 10.4 mph - N/A   Clear
9:55 AM 30.6 °F 21.2 °F 7.7 °F 38% 29.86 in 10.0 mi West 11.5 mph - N/A   Clear
10:15 AM 32.0 °F 25.6 °F 7.7 °F 36% 29.85 in 10.0 mi WNW 6.9 mph - N/A   Clear
10:35 AM 32.2 °F 25.8 °F 7.5 °F 36% 29.84 in 10.0 mi West 6.9 mph - N/A   Clear
10:55 AM 33.6 °F 26.8 °F 8.2 °F 35% 29.84 in 10.0 mi NNW 8.1 mph - N/A   Clear
11:15 AM 33.8 °F 26.4 °F 8.4 °F 35% 29.84 in 10.0 mi NNW 9.2 mph - N/A   Clear
11:35 AM 35.1 °F 28.6 °F 11.3 °F 37% 29.84 in 10.0 mi NW 8.1 mph - N/A   Clear
11:55 AM 34.9 °F 26.6 °F 10.0 °F 36% 29.83 in 10.0 mi WNW 11.5 mph - N/A   Clear
12:15 PM 33.1 °F 25.5 °F 7.7 °F 35% 29.83 in 10.0 mi NNW 9.2 mph 17.3 mph N/A   Clear
12:35 PM 36.0 °F 29.0 °F 8.2 °F 32% 29.82 in 10.0 mi NNW 9.2 mph - N/A   Scattered Clouds
12:55 PM 33.6 °F 24.1 °F 9.5 °F 37% 29.81 in 10.0 mi North 13.8 mph 17.3 mph N/A   Scattered Clouds
1:15 PM 30.6 °F 20.7 °F 10.0 °F 42% 29.81 in 10.0 mi North 12.7 mph 19.6 mph N/A   Clear
1:35 PM 32.0 °F 24.2 °F 9.1 °F 38% 29.80 in 10.0 mi North 9.2 mph - N/A   Clear
1:55 PM 31.5 °F 22.3 °F 8.2 °F 38% 29.81 in 10.0 mi North 11.5 mph - N/A   Clear
2:15 PM 32.0 °F 21.2 °F 7.7 °F 36% 29.81 in 10.0 mi North 16.1 mph 20.7 mph N/A   Mostly Cloudy
2:35 PM 31.6 °F 22.1 °F 7.3 °F 36% 29.80 in 10.0 mi North 12.7 mph - N/A   Overcast
2:55 PM 31.5 °F 22.3 °F 8.2 °F 38% 29.80 in 10.0 mi North 11.5 mph - N/A   Overcast
3:15 PM 31.6 °F 23.7 °F 7.5 °F 36% 29.80 in 10.0 mi NNW 9.2 mph - N/A   Mostly Cloudy
3:35 PM 30.7 °F 23.3 °F 7.5 °F 38% 29.81 in 10.0 mi NNW 8.1 mph 16.1 mph N/A   Mostly Cloudy
3:55 PM 30.2 °F 21.3 °F 7.5 °F 39% 29.81 in 10.0 mi NNW 10.4 mph - N/A   Overcast
4:15 PM 29.7 °F 22.8 °F 8.4 °F 41% 29.81 in 10.0 mi NNW 6.9 mph - N/A   Overcast
4:35 PM 28.4 °F 21.2 °F 11.7 °F 50% 29.82 in 10.0 mi NNW 6.9 mph - N/A   Overcast
4:55 PM 28.9 °F 21.9 °F 8.2 °F 42% 29.82 in 10.0 mi NNW 6.9 mph - N/A   Overcast
5:15 PM 28.4 °F 18.5 °F 9.3 °F 45% 29.84 in 10.0 mi NW 11.5 mph - N/A   Overcast
5:35 PM 28.2 °F 18.9 °F 12.7 °F 52% 29.84 in 10.0 mi NNW 10.4 mph 17.3 mph N/A   Overcast
5:55 PM 26.4 °F 18.9 °F 13.8 °F 59% 29.85 in 10.0 mi West 6.9 mph - N/A   Overcast
6:15 PM 24.6 °F 17.7 °F 12.0 °F 59% 29.86 in 10.0 mi West 5.8 mph - N/A   Scattered Clouds
6:35 PM 23.9 °F 18.0 °F 11.7 °F 60% 29.86 in 10.0 mi WNW 4.6 mph - N/A   Scattered Clouds
6:55 PM 22.1 °F 13.7 °F 10.0 °F 60% 29.86 in 10.0 mi NW 6.9 mph - N/A   Clear
7:15 PM 20.1 °F 11.3 °F 9.0 °F 62% 29.86 in 10.0 mi NW 6.9 mph - N/A   Clear
7:55 PM 17.2 °F 8.9 °F 7.7 °F 66% 29.87 in 10.0 mi NW 5.8 mph - N/A   Clear
8:15 PM 16.9 °F 7.4 °F 7.9 °F 68% 29.88 in 10.0 mi North 6.9 mph - N/A   Scattered Clouds
8:35 PM 16.7 °F 9.6 °F 7.2 °F 66% 29.88 in 10.0 mi NNW 4.6 mph - N/A   Scattered Clouds
8:55 PM 15.3 °F 7.9 °F 6.1 °F 67% 29.88 in 10.0 mi NNW 4.6 mph - N/A   Scattered Clouds
9:15 PM 15.8 °F 5.1 °F 7.7 °F 70% 29.89 in 10.0 mi NW 8.1 mph - N/A   Overcast
9:35 PM 19.0 °F 9.0 °F 7.3 °F 60% 29.89 in 10.0 mi North 8.1 mph - N/A   Overcast
9:55 PM 20.3 °F 12.5 °F 6.8 °F 56% 29.90 in 10.0 mi North 5.8 mph - N/A   Mostly Cloudy
10:15 PM 19.2 °F 11.3 °F 6.8 °F 59% 29.90 in 10.0 mi NE 5.8 mph - N/A   Scattered Clouds
10:35 PM 18.0 °F 7.7 °F 7.2 °F 63% 29.90 in 10.0 mi NNE 8.1 mph - N/A   Clear
10:55 PM 17.4 °F 8.0 °F 8.4 °F 68% 29.91 in 10.0 mi NE 6.9 mph - N/A   Scattered Clouds
11:15 PM 19.0 °F 11.1 °F 10.4 °F 69% 29.91 in 10.0 mi North 5.8 mph - N/A   Mostly Cloudy
11:35 PM 18.5 °F 10.4 °F 10.4 °F 71% 29.92 in 10.0 mi North 5.8 mph - N/A   Mostly Cloudy
11:55 PM 17.1 °F 8.7 °F 11.1 °F 77% 29.92 in 10.0 mi North 5.8 mph - N/A   Mostly Cloudy